Location: Gwatt
(46.7204°N, 7.6223°E)
Time: 01:07:05
(UTC+00:00)

Envisat - Pass Details

Date: 04 December 2020
Orbit: 764 x 766 km, 98.1° (Epoch: 19 January)

Event Time Altitude Azimuth Distance (km) Brightness Sun altitude
Rises 18:04:45 0° 220° (SW) 3,223 7.0 -23.6°
Reaches altitude 10° 18:08:37 10° 251° (WSW) 2,304 6.5 -24.2°
Maximum altitude 18:10:36 12° 274° (W) 2,159 6.3 -24.6°
Drops below altitude 10° 18:12:35 10° 297° (WNW) 2,311 6.2 -24.9°
Sets 18:16:30 0° 327° (NNW) 3,244 6.6 -25.6°
